Location: Unspecified
(40.7945°N, 111.1337°W)
Time: 17:47:19
(UTC-06:00)

Resurs 1-4 Rocket - Pass Details

Date: 29 March 2019
Orbit: 799 x 815 km, 98.6° (Epoch: 25 April)

Event Time Altitude Azimuth Distance (km) Brightness Sun altitude
Rises 03:01:38 0° 16° (NNE) 3,325 6.1 -41.1°
Reaches altitude 10° 03:04:00 10° 19° (NNE) 2,388 5.2 -40.9°
Enters shadow 03:05:30 19° 22° (NNE) 1,813 4.4 -40.7°
